Powrót do katalogu

THORAD AGENA D DEB

AktywnySSO
NORAD 5067·DEBRIS·🇺🇸 United States

Wystrzelony Apr 8, 1970 z Vandenberg Space Force Base

Loading…

Następne Przeloty

TLE

Source: Space-Track
1  5067U 70025JM  26221.66576964  .00000201  00000-0  30506-3 0  9994
2  5067  99.9931 118.2379 0006641 102.1711 314.2825 13.65359072792623

Śledź THORAD AGENA D DEB w czasie rzeczywistym z AllMySat

Download on the App Store